ASTRA 2E

Last updated on Fri Jul 10 2026 00:03:03 GMT+0000 (Coordinated Universal Time)

1 39285U 13056A 26190.28934493 .00000164 00000+0 00000+0 0 9991 2 39285 0.0649 326.2841 0002578 150.9574 302.6331 1.00270875 46634
UTC large
Height (km)
Speed (km/s)
/
Latitude / Longitude
Inclination (degrees)
Orbital Period (minutes)
Azimuth
Elevation
Range (km)
Doppler Factor

Next 0 passes for location: London (51.5072 / 0.1276)

No passes found over London.
ASTRA 2E